FALCON 9 DEB (53809 NORAD) Tracking and Keplerian Element Data

This shows tracking and keplerian element data for the satellite.

Feedback or suggestion? Click here.




ElementValue
Catalog53809
NameFALCON 9 DEB
Epoch Orbit966
Epoch Day308.10481742
Epoch Year2022
RAAN352.228
Inclination53.1899
Eccentricity0.0010414
Argument of Perigee36.9259
Mean Anonmoly323.2494
Mean Motion16.13741114
Decay Rate0.01217477
L11 53809U 22111AN 22308.10481742 .01217477 10228-2 98375-3 0 9993
L22 53809 53.1899 352.2280 0010414 36.9259 323.2494 16.13741114 9665



Live tracking and technical data element details for FALCON 9 DEB (NORAD 53809). FALCON 9 DEB can be tracked NOW for your location showing map with azimuth and elevation plus other details from your city location.







IsCatalogInMostPopularTable: catalog: 53809, numindb: -1

Insert: records affected: 1


GetName: 53809 FALCON 9 DEB

Hit Count: inserted at: Mon, 28 Nov 2022 04:20:20 GMT